Weather History for Mojave, CA

Change the Weather History Date:

Tuesday, April 30, 2013

  Actual Average Record
Temperature  
Mean Temperature 76 °F -  
Max Temperature 84 °F 75 °F 94 °F (1981)
Min Temperature 68 °F 49 °F 38 °F (1979)
Cooling Degree Days 11    
Growing Degree Days 26 (Base 50)    
Moisture  
Dew Point 38 °F    
Average Humidity 27    
Maximum Humidity 38    
Minimum Humidity 15    
Precipitation  
Precipitation 0.00 in - - ()
Sea Level Pressure  
Sea Level Pressure 29.75 in    
Wind  
Wind Speed 22 mph (West)    
Max Wind Speed 36 mph    
Max Gust Speed 54 mph    
Visibility 10 miles    
Events      
Averages and records for this station are not official NWS values.
T = Trace of Precipitation, MM = Missing Value Source: NWS Daily Summary

Daily Weather History Graph

Daily Weather History Graph

Search for Another Location

Airport:

Trip Planner

Search our weather history database for the weather conditions in past years. The results will help you decide how hot, cold, wet, or windy it might be!

Date:

Astronomy

Apr. 30, 2013 Rise Set
Actual Time 6:02 AM PDT 7:37 PM PDT
Civil Twilight 5:35 AM PDT 8:04 PM PDT
Nautical Twilight 5:02 AM PDT 8:37 PM PDT
Astronomical Twilight 4:28 AM PDT 9:11 PM PDT
Moon 12:02 AM PDT (4/30) 10:38 AM PDT (4/30)
Length of Visible Light 14h 29m
Length of Day
13h 35m
Waning Gibbous, 69% of the Moon is Illuminated
Apr 30
Waning Gibbous
May 2
Last Quarter
May 9
New
May 17
First Quarter
May 24
Full

Hourly Weather History & Observations

Time (PDT) Temp. Dew Point Humidity Pressure Visibility Wind Dir Wind Speed Gust Speed Precip Events Conditions
12:10 AM 73.4 °F 39.2 °F 29% 29.78 in 10.0 mi West 15.0 mph 21.9 mph N/A   Clear
12:35 AM 71.6 °F 42.8 °F 35% 29.77 in 10.0 mi WNW 23.0 mph 32.2 mph N/A   Clear
12:50 AM 71.6 °F 44.6 °F 38% 29.75 in 10.0 mi West 25.3 mph 41.4 mph N/A   Clear
1:15 AM 71.6 °F 44.6 °F 38% 29.73 in 10.0 mi WNW 34.5 mph 46.0 mph N/A   Clear
1:35 AM 71.6 °F 44.6 °F 38% 29.73 in 10.0 mi WNW 17.3 mph 42.6 mph N/A   Clear
1:55 AM 71.6 °F 42.8 °F 35% 29.73 in 9.0 mi WNW 24.2 mph 54.1 mph N/A   Clear
2:15 AM 71.6 °F 41.0 °F 33% 29.72 in 10.0 mi West 32.2 mph 43.7 mph N/A   Clear
2:30 AM 71.6 °F 41.0 °F 33% 29.75 in 10.0 mi West 23.0 mph 38.0 mph N/A   Clear
2:45 AM 71.6 °F 42.8 °F 35% 29.76 in 10.0 mi SW 9.2 mph 25.3 mph N/A   Clear
3:15 AM 71.6 °F 41.0 °F 33% 29.75 in 10.0 mi SSW 8.1 mph 24.2 mph N/A   Unknown
3:30 AM 71.6 °F 39.2 °F 31% 29.75 in 10.0 mi SW 8.1 mph 20.7 mph N/A   Clear
3:55 AM 71.6 °F 37.4 °F 29% 29.74 in 10.0 mi West 24.2 mph 34.5 mph N/A   Clear
4:15 AM 71.6 °F 35.6 °F 27% 29.71 in 10.0 mi West 29.9 mph 38.0 mph N/A   Clear
4:25 AM 71.6 °F 37.4 °F 29% 29.73 in 10.0 mi WNW 16.1 mph 32.2 mph N/A   Clear
4:45 AM 71.6 °F 35.6 °F 27% 29.73 in 10.0 mi SW 8.1 mph 25.3 mph N/A   Clear
6:30 AM 71.6 °F 35.6 °F 27% 29.76 in 10.0 mi SSW 10.4 mph 18.4 mph N/A   Clear
7:00 AM 71.6 °F 37.4 °F 29% 29.76 in 10.0 mi WSW 16.1 mph 23.0 mph N/A   Clear
7:25 AM 71.6 °F 37.4 °F 29% 29.75 in 10.0 mi West 21.9 mph 28.8 mph N/A   Clear
7:50 AM 71.6 °F 37.4 °F 29% 29.75 in 10.0 mi WSW 24.2 mph 33.4 mph N/A   Clear
8:10 AM 75.2 °F 35.6 °F 24% 29.77 in 10.0 mi WNW 12.7 mph - N/A   Clear
8:15 AM 75.2 °F 35.6 °F 24% 29.77 in 10.0 mi WNW 11.5 mph 19.6 mph N/A   Clear
9:15 AM 75.2 °F 35.6 °F 24% 29.77 in 10.0 mi WSW 17.3 mph 25.3 mph N/A   Clear
9:25 AM 77.0 °F 35.6 °F 22% 29.76 in 10.0 mi WNW 18.4 mph 27.6 mph N/A   Clear
11:20 AM 80.6 °F 37.4 °F 21% 29.78 in 10.0 mi WNW 24.2 mph 32.2 mph N/A   Clear
12:05 PM 80.6 °F 37.4 °F 21% 29.77 in 10.0 mi West 20.7 mph 34.5 mph N/A   Clear
12:30 PM 82.4 °F 33.8 °F 17% 29.77 in 10.0 mi WNW 18.4 mph 28.8 mph N/A   Clear
12:50 PM 84.2 °F 33.8 °F 16% 29.77 in 10.0 mi West 11.5 mph 27.6 mph N/A   Clear
1:05 PM 84.2 °F 33.8 °F 16% 29.77 in 10.0 mi West 18.4 mph 29.9 mph N/A   Clear
1:15 PM 84.2 °F 33.8 °F 16% 29.77 in 10.0 mi West 20.7 mph 31.1 mph N/A   Clear
1:50 PM 84.2 °F 33.8 °F 16% 29.76 in 10.0 mi West 24.2 mph 31.1 mph N/A   Clear
2:15 PM 84.2 °F 32.0 °F 15% 29.75 in 10.0 mi West 25.3 mph 33.4 mph N/A   Clear
2:25 PM 84.2 °F 32.0 °F 15% 29.75 in 10.0 mi West 23.0 mph 33.4 mph N/A   Clear
2:55 PM 84.2 °F 35.6 °F 18% 29.75 in 10.0 mi West 26.5 mph 32.2 mph N/A   Clear
3:15 PM 84.2 °F 35.6 °F 18% 29.74 in 10.0 mi West 27.6 mph 34.5 mph N/A   Clear
3:35 PM 84.2 °F 35.6 °F 18% 29.73 in 10.0 mi West 29.9 mph 40.3 mph N/A   Clear
3:55 PM 82.4 °F 37.4 °F 20% 29.72 in 10.0 mi West 33.4 mph 41.4 mph N/A   Clear
4:15 PM 82.4 °F 37.4 °F 20% 29.73 in 10.0 mi West 31.1 mph 38.0 mph N/A   Clear
4:35 PM 80.6 °F 37.4 °F 21% 29.74 in 10.0 mi West 27.6 mph 34.5 mph N/A   Clear
4:45 PM 80.6 °F 37.4 °F 21% 29.73 in 10.0 mi West 29.9 mph 36.8 mph N/A   Clear
5:15 PM 80.6 °F 39.2 °F 23% 29.73 in 10.0 mi West 27.6 mph 40.3 mph N/A   Clear
5:20 PM 80.6 °F 39.2 °F 23% 29.73 in 10.0 mi West 33.4 mph 39.1 mph N/A   Clear
5:50 PM 77.0 °F 39.2 °F 26% 29.73 in 10.0 mi West 29.9 mph 38.0 mph N/A   Clear
6:10 PM 77.0 °F 39.2 °F 26% 29.74 in 10.0 mi West 23.0 mph 35.7 mph N/A   Clear
6:35 PM 75.2 °F 37.4 °F 25% 29.74 in 10.0 mi WSW 23.0 mph 31.1 mph N/A   Clear
6:55 PM 73.4 °F 39.2 °F 29% 29.73 in 10.0 mi WSW 24.2 mph 35.7 mph N/A   Clear
7:15 PM 73.4 °F 41.0 °F 31% 29.72 in 10.0 mi West 20.7 mph 43.7 mph N/A   Clear
7:30 PM 73.4 °F 41.0 °F 31% 29.73 in 10.0 mi West 17.3 mph 34.5 mph N/A   Clear
7:50 PM 71.6 °F 41.0 °F 33% 29.73 in 8.0 mi WNW 24.2 mph 49.5 mph N/A   Clear
8:15 PM 71.6 °F 39.2 °F 31% 29.73 in 10.0 mi WNW 28.8 mph 38.0 mph N/A   Clear
8:35 PM 71.6 °F 39.2 °F 31% 29.74 in 10.0 mi WNW 18.4 mph 35.7 mph N/A   Clear
8:55 PM 69.8 °F 41.0 °F 35% 29.75 in 10.0 mi West 28.8 mph 44.9 mph N/A   Clear
9:15 PM 69.8 °F 41.0 °F 35% 29.75 in 10.0 mi WNW 28.8 mph 47.2 mph N/A   Clear
9:35 PM 68.0 °F 41.0 °F 37% 29.75 in 10.0 mi WNW 31.1 mph 40.3 mph N/A   Clear
9:55 PM 68.0 °F 41.0 °F 37% 29.76 in 8.0 mi West 28.8 mph 47.2 mph N/A   Clear
10:15 PM 68.0 °F 39.2 °F 35% 29.76 in 8.0 mi West 35.7 mph 49.5 mph N/A   Clear
10:35 PM 68.0 °F 39.2 °F 35% 29.77 in 10.0 mi NW 29.9 mph 50.6 mph N/A   Clear
10:55 PM 68.0 °F 37.4 °F 33% 29.76 in 10.0 mi West 35.7 mph 44.9 mph N/A   Clear
11:15 PM 68.0 °F 37.4 °F 33% 29.77 in 10.0 mi WNW 26.5 mph 43.7 mph N/A   Clear
11:35 PM 68.0 °F 37.4 °F 33% 29.78 in 10.0 mi WNW 25.3 mph 42.6 mph N/A   Clear
11:55 PM 68.0 °F 37.4 °F 33% 29.78 in 10.0 mi West 28.8 mph 40.3 mph N/A   Clear